Powrót do katalogu

YAOGAN-30 D

AktywnyMilitariaVLEO
NORAD 43028·PAYLOAD·🇨🇳 China

Wystrzelony Nov 24, 2017 z Xichang Satellite Launch Center

Loading…

Następne Przeloty (najbliższe 24 godziny)

TLE

ŚwieżeSource: Space-Track

Epoka: Sep 14, 2026, 14:57 UTC

1 43028U 17075A   26257.62323543  .00002149  00000-0  15784-3 0  9991
2 43028  34.9943  85.1463 0002112 344.9934  15.0711 15.03192882480714

Śledź YAOGAN-30 D w czasie rzeczywistym z AllMySat

Download on the App Store